Regional Weather Roundup
Issued by NWS

Home | Current Version | Previous Version | Graphics & Text | Print | Product List | Glossary On
Versions: 1 2 3 4 5 6 7 8 9 10 11 12 13 14 15 16 17 18 19 20 21 22 23 24 25 26 27 28 29 30 31 32 33 34 35 36 37 38 39 40 41 42 43 44 45 46 47 48 49 50
000
ASUS45 KABQ 272010
RWRNM
NEW MEXICO REGIONAL WEATHER ROUNDUP
NATIONAL WEATHER SERVICE ALBUQUERQUE NM
200 PM MDT TUE SEP 27 2016

NOTE: "FAIR" MEANS FEW OR NO CLOUDS BELOW 12,000 FEET AGL WITH NO
       SIGNIFICANT WEATHER OR OBSTRUCTIONS TO VISION.

      THIS PRODUCT IS RELEASED AS TWO VERSIONS.  ONE VERSION NEAR
      THE TOP OF THE HOUR CONTAINING PRELIMINARY DATA FROM ALBUQUERQUE
      AND OTHER STATIONS.  A FINAL VERSION WITH ADDITIONAL DATA IS
      ISSUED ABOUT 10 MINUTES AFTER THE HOUR.

NMZ501-503-504-510>518-272100-
NORTHWEST PLATEAU/NORTHCENTRAL MOUNTAINS

CITY           SKY/WX    TMP DP  RH WIND       PRES   REMARKS
FARMINGTON     FAIR      73  31  21 MISG      30.24F
LOS ALAMOS     FAIR      68  25  20 SE8       30.34F
SANTA FE       FAIR      71  26  18 VRB3      30.29F
TAOS           FAIR      72  28  20 W5        30.31F

$$
NMZ402-403-502-505>509-272100-
WESTCENTRAL MOUNTAINS/SOUTHWEST MOUNTAINS

CITY           SKY/WX    TMP DP  RH WIND       PRES   REMARKS
GALLUP         CLOUDY    68  34  28 N12       30.28F
SILVER CITY    CLOUDY    65  42  43 SE12G18   30.27F

$$
NMZ407-409-411-412-272100-
SOUTHERN DESERTS

CITY           SKY/WX    TMP DP  RH WIND       PRES   REMARKS
DEMING         CLOUDY    67  47  48 E8        30.22F
LAS CRUCES     CLOUDY    66  44  45 CALM      30.24F
HOLLOMAN AFB   FAIR      70  46  42 NW6       30.20F
ALAMOGORDO     FAIR      70  45  40 NW8       30.22F
T OR C         FAIR      71  47  42 VRB7      30.22F

$$
NMZ519>523-272100-
CENTRAL VALLEYS/CENTRAL HIGHLANDS

CITY           SKY/WX    TMP DP  RH WIND       PRES   REMARKS
ALBUQUERQUE    PTSUNNY   74  32  21 CALM      30.25F
DOUBLE EAGLE   MOSUNNY   73  28  19 CALM      30.28F
MORIARTY ARPT  FAIR      71  27  19 SE5       30.31F
CLINES CORNERS FAIR      68  32  26 MISG      30.33F
BELEN          FAIR      71  32  23 NW3       30.25F
SOCORRO        FAIR      75  40  29 SE9       30.22F

$$
NMZ524>526-539-540-272100-
SOUTHCENTRAL MOUNTAINS

CITY           SKY/WX    TMP DP  RH WIND       PRES   REMARKS
RUIDOSO        FAIR      66  32  28 CALM      30.33F

$$
NMZ527>531-272100-
NORTHEAST HIGHLANDS/NORTHEAST PLAINS

CITY           SKY/WX    TMP DP  RH WIND       PRES   REMARKS
LAS VEGAS      FAIR      71  24  17 MISG      30.31F
RATON          FAIR      74  31  20 VRB3      30.24F
CLAYTON        FAIR      79  37  22 VRB3      30.18F

$$
NMZ532>537-272100-
EASTCENTRAL PLAINS

CITY           SKY/WX    TMP DP  RH WIND       PRES   REMARKS
TUCUMCARI      FAIR      80  32  17 CALM      30.15F
CANNON AFB     NOT AVBL
CLOVIS AIRPORT FAIR      73  41  31 W8        30.19F

$$
NMZ028-029-538-272100-
SOUTHEAST PLAINS

CITY           SKY/WX    TMP DP  RH WIND       PRES   REMARKS
ROSWELL        FAIR      76  32  20 VRB3      30.18F
ARTESIA        FAIR      72  43  35 NE5       30.19F
CARLSBAD       FAIR      70  44  39 VRB6      30.17F
HOBBS          SUNNY     73  28  19 VRB3      30.20F


$$




USA.gov is the U.S. government's official web portal to all federal, state and local government web resources and services.